W8SZ Weather Reports


time (UTC)temp
C
wind
direction
speed
KPH
gust
KPH
rain 1hr
cm
rain 24hr
cm
rain mn
cm
humidity
%
barometer
mb
20181211084428 -1 232 1.6 0.0 0.00 0.00 0.00 96 1012.3
20181211083937 -1 232 4.8 0.0 0.00 0.00 0.00 95 1012.2
20181211083426 -1 232 8.0 0.0 0.00 0.00 0.00 95 1012.1
20181211082927 -1 232 6.4 0.0 0.00 0.00 0.00 95 1012.3
20181211082436 -1 232 1.6 0.0 0.00 0.00 0.00 95 1012.2
20181211081925 -1 232 3.2 0.0 0.00 0.00 0.00 95 1012.5
20181211081435 -1 232 1.6 0.0 0.00 0.00 0.00 95 1012.2
20181211080924 -1 232 1.6 0.0 0.00 0.00 0.00 95 1012.5
20181211080436 -1 232 4.8 0.0 0.00 0.00 0.00 95 1012.7
20181211075954 -1 232 3.2 0.0 0.00 0.00 0.00 95 1012.7
20181211075421 -1 232 4.8 0.0 0.00 0.00 0.00 94 1012.7
20181211074931 -1 232 4.8 0.0 0.00 0.00 0.00 94 1012.9
20181211074418 -1 232 4.8 0.0 0.00 0.00 0.00 94 1012.7
20181211073949 -1 232 1.6 0.0 0.00 0.00 0.00 94 1012.5
20181211073439 -1 232 1.6 0.0 0.00 0.00 0.00 94 1012.8
20181211072918 -1 232 4.8 0.0 0.00 0.00 0.00 94 1013.1
20181211072423 -1 232 3.2 0.0 0.00 0.00 0.00 94 1012.6
20181211071911 -1 232 6.4 0.0 0.00 0.00 0.00 94 1012.9
20181211071421 -1 232 1.6 0.0 0.00 0.00 0.00 94 1012.9
20181211070911 -1 232 0.0 0.0 0.00 0.00 0.00 94 1012.8
20181211070423 -1 232 4.8 0.0 0.00 0.00 0.00 94 1012.9
20181211065921 -1 232 1.6 0.0 0.00 0.00 0.00 94 1012.6
20181211065412 -1 232 1.6 0.0 0.00 0.00 0.00 94 1012.8
20181211064921 -2 232 3.2 0.0 0.00 0.00 0.00 94 1012.8
20181211064413 -2 232 4.8 0.0 0.00 0.00 0.00 94 1012.7
20181211063920 -2 232 4.8 0.0 0.00 0.00 0.00 94 1013.1
20181211063430 -2 232 4.8 0.0 0.00 0.00 0.00 94 1012.7
20181211062908 -2 232 4.8 0.0 0.00 0.00 0.00 95 1012.6
20181211062418 -2 232 3.2 0.0 0.00 0.00 0.00 95 1012.6
20181211061908 -2 232 3.2 0.0 0.00 0.00 0.00 95 1012.9
20181211061418 -2 232 4.8 0.0 0.00 0.00 0.00 95 1012.8
20181211060907 -2 236 11.3 0.0 0.00 0.00 0.00 96 1012.7
20181211060417 -2 236 6.4 0.0 0.00 0.00 0.00 96 1012.6
20181211055915 -2 236 6.4 0.0 0.00 0.00 0.00 96 1012.7
20181211055405 -2 238 11.3 0.0 0.00 0.00 0.00 96 1013.0
20181211054912 -2 239 9.7 0.0 0.00 0.00 0.00 95 1012.6
20181211054403 -2 239 8.0 0.0 0.00 0.00 0.00 95 1012.8
20181211053909 -2 239 9.7 0.0 0.00 0.00 0.00 95 1013.1
20181211053417 -2 239 4.8 0.0 0.00 0.00 0.00 95 1012.9
20181211052916 -2 239 0.0 0.0 0.00 0.00 0.00 95 1013.4
20181211052407 -2 239 3.2 0.0 0.00 0.00 0.00 95 1013.1
20181211051857 -2 239 1.6 0.0 0.00 0.00 0.00 94 1013.1
20181211051406 -2 239 3.2 0.0 0.00 0.00 0.00 95 1013.4
20181211050856 -2 239 4.8 0.0 0.00 0.00 0.00 94 1013.3
20181211050405 -2 239 4.8 0.0 0.00 0.00 0.00 94 1014.0
20181211045904 -2 239 1.6 0.0 0.00 0.00 0.00 95 1013.6
20181211045413 -3 239 1.6 0.0 0.00 0.00 0.00 95 1013.9
20181211044901 -3 239 4.8 0.0 0.00 0.00 0.00 95 1013.9
20181211044410 -3 239 3.2 0.0 0.00 0.00 0.00 95 1014.2
20181211043900 -3 239 4.8 0.0 0.00 0.00 0.00 95 1014.2
20181211043411 -3 238 4.8 0.0 0.00 0.00 0.00 95 1014.3
20181211042908 -3 238 6.4 0.0 0.00 0.00 0.00 96 1014.4
20181211042357 -3 238 6.4 0.0 0.00 0.00 0.00 96 1014.1
20181211041928 -3 238 4.8 0.0 0.00 0.00 0.00 96 1014.1
20181211041358 -3 239 11.3 0.0 0.00 0.00 0.00 95 1014.1
20181211040907 -3 239 6.4 0.0 0.00 0.00 0.00 95 1014.2
20181211040358 -3 239 4.8 0.0 0.00 0.00 0.00 95 1014.2
20181211035854 -3 239 8.0 0.0 0.00 0.00 0.00 95 1014.2
20181211035346 -3 237 4.8 0.0 0.00 0.00 0.00 95 1014.2
20181211034859 -3 237 4.8 0.0 0.00 0.00 0.00 95 1014.3
20181211034347 -3 237 3.2 0.0 0.00 0.00 0.00 95 1014.4
20181211033856 -3 237 6.4 0.0 0.00 0.00 0.00 95 1014.3
20181211033405 -2 237 11.3 0.0 0.00 0.00 0.00 95 1014.4
20181211032903 -2 236 9.7 0.0 0.00 0.00 0.00 95 1014.3
20181211032351 -2 236 9.7 0.0 0.00 0.00 0.00 95 1014.3
20181211031900 -2 232 6.4 0.0 0.00 0.00 0.00 95 1014.7
20181211031348 -2 232 6.4 0.0 0.00 0.00 0.00 95 1014.5
20181211030857 -2 231 11.3 0.0 0.00 0.00 0.00 95 1014.5
20181211030407 -2 231 6.4 0.0 0.00 0.00 0.00 95 1014.7
20181211025844 -2 231 3.2 0.0 0.00 0.00 0.00 95 1014.7
20181211025354 -2 231 6.4 0.0 0.00 0.00 0.00 95 1014.5
20181211024843 -2 229 6.4 0.0 0.00 0.00 0.00 95 1014.7
20181211024413 -2 235 8.0 0.0 0.00 0.00 0.00 96 1014.6
20181211023900 -2 231 4.8 0.0 0.00 0.00 0.00 95 1014.6
20181211023409 -2 231 9.7 0.0 0.00 0.00 0.00 95 1014.7
20181211022845 -2 229 8.0 0.0 0.00 0.00 0.00 95 1014.4
20181211022351 -2 229 11.3 0.0 0.00 0.00 0.00 95 1014.1
20181211021838 -2 236 12.9 0.0 0.00 0.00 0.00 95 1014.3
20181211021349 -2 226 11.3 0.0 0.00 0.00 0.00 95 1014.6
20181211020837 -2 222 9.7 0.0 0.00 0.00 0.00 95 1014.8
20181211020348 -2 221 9.7 0.0 0.00 0.00 0.00 95 1014.6
20181211015849 -2 225 8.0 0.0 0.00 0.00 0.00 95 1014.8
20181211015338 -2 230 4.8 0.0 0.00 0.00 0.00 95 1014.8
20181211014845 -2 221 6.4 0.0 0.00 0.00 0.00 95 1014.9
20181211014337 -2 222 9.7 0.0 0.00 0.00 0.00 95 1015.2
20181211013846 -2 221 8.0 0.0 0.00 0.00 0.00 95 1015.4
20181211013355 -2 218 6.4 0.0 0.00 0.00 0.00 95 1015.1
20181211012834 -2 218 8.0 0.0 0.00 0.00 0.00 95 1015.6
20181211012444 -2 218 4.8 0.0 0.00 0.00 0.00 95 1015.2
20181211011951 -2 212 4.8 0.0 0.00 0.00 0.00 96 1015.4
20181211011440 -2 213 8.0 0.0 0.00 0.00 0.00 96 1015.4
20181211010949 -2 217 14.5 0.0 0.00 0.00 0.00 96 1015.8
20181211010454 -2 219 12.9 0.0 0.00 0.00 0.00 96 1015.3
20181211005937 -2 231 14.5 0.0 0.00 0.00 0.00 95 1015.2
20181211005443 -2 208 16.1 0.0 0.00 0.00 0.00 95 1015.4
20181211004931 -2 210 16.1 0.0 0.00 0.00 0.00 95 1015.5
20181211004439 -2 211 12.9 0.0 0.00 0.00 0.00 95 1015.7
20181211003948 -2 200 11.3 0.0 0.00 0.00 0.00 95 1015.5
20181211003454 -2 216 11.3 0.0 0.00 0.00 0.00 94 1016.0
20181211002932 -2 215 20.9 0.0 0.00 0.00 0.00 94 1015.8
20181211002437 -2 218 9.7 0.0 0.00 0.00 0.00 94 1016.0
20181211001945 -2 220 11.3 0.0 0.00 0.00 0.00 94 1016.2
20181211001431 -2 217 9.7 17.7 0.00 0.00 0.00 93 1016.1
20181211000938 -2 214 9.7 17.7 0.00 0.00 0.00 93 1016.4
20181211000446 -2 221 11.3 17.7 0.00 0.00 0.00 93 1016.4
20181210235939 -2 220 8.0 19.3 0.00 0.00 0.00 93 1016.7
20181210235448 -2 220 11.3 19.3 0.00 0.00 0.00 93 1016.5
20181210234933 -2 217 9.7 14.5 0.00 0.00 0.00 93 1016.6
20181210234442 -2 217 9.7 14.5 0.00 0.00 0.00 93 1016.8
20181210233946 -2 217 8.0 14.5 0.00 0.00 0.00 93 1017.0
20181210233448 -2 217 8.0 14.5 0.00 0.00 0.00 93 1017.0
20181210232941 -2 217 6.4 14.5 0.00 0.00 0.00 93 1016.7
20181210232428 -2 217 8.0 12.9 0.00 0.00 0.00 93 1016.8
20181210231936 -2 217 6.4 16.1 0.00 0.00 0.00 93 1017.1
20181210231442 -2 217 6.4 16.1 0.00 0.00 0.00 94 1016.9
20181210230927 -2 217 8.0 16.1 0.00 0.00 0.00 93 1016.9
20181210230453 -2 216 8.0 17.7 0.00 0.00 0.00 93 1016.9
20181210225928 -2 216 8.0 17.7 0.00 0.00 0.00 93 1017.1
20181210225419 -2 214 11.3 17.7 0.00 0.00 0.00 93 1017.1
20181210224930 -2 223 8.0 14.5 0.00 0.00 0.00 92 1017.2
20181210224440 -2 223 9.7 14.5 0.00 0.00 0.00 92 1017.4
20181210223925 -2 223 8.0 14.5 0.00 0.00 0.00 92 1017.3
20181210223433 -2 223 6.4 14.5 0.00 0.00 0.00 91 1017.2
20181210222929 -2 222 6.4 14.5 0.00 0.00 0.00 91 1017.1
20181210222433 -2 222 8.0 17.7 0.00 0.00 0.00 90 1017.1
20181210221922 -1 222 4.8 17.7 0.00 0.00 0.00 90 1017.5
20181210221428 -1 222 8.0 14.5 0.00 0.00 0.00 90 1017.1
20181210220935 -1 222 11.3 14.5 0.00 0.00 0.00 89 1017.1
20181210220437 -1 222 9.7 14.5 0.00 0.00 0.00 88 1017.1
20181210215933 -1 219 8.0 12.9 0.00 0.00 0.00 88 1017.2
20181210215420 -1 219 6.4 12.9 0.00 0.00 0.00 87 1017.0
20181210214926 -1 219 6.4 11.3 0.00 0.00 0.00 87 1017.4
20181210214418 -1 219 8.0 11.3 0.00 0.00 0.00 87 1017.2
20181210213924 -1 219 4.8 9.7 0.00 0.00 0.00 86 1017.5
20181210213436 -1 219 3.2 9.7 0.00 0.00 0.00 86 1017.5
20181210212930 -1 219 3.2 9.7 0.00 0.00 0.00 86 1017.6
20181210212413 -1 219 4.8 11.3 0.00 0.00 0.00 85 1017.4
20181210211920 -1 219 4.8 11.3 0.00 0.00 0.00 85 1017.6
20181210211427 -1 219 4.8 9.7 0.00 0.00 0.00 84 1017.5
20181210210913 -1 219 6.4 11.3 0.00 0.00 0.00 84 1017.7
20181210210425 -1 219 8.0 17.7 0.00 0.00 0.00 84 1017.4
20181210205921 -1 217 9.7 17.7 0.00 0.00 0.00 84 1017.3
20181210205409 -1 217 6.4 12.9 0.00 0.00 0.00 83 1017.7
20181210204914 -1 217 6.4 14.5 0.00 0.00 0.00 83 1017.5
20181210204420 0 217 8.0 14.5 0.00 0.00 0.00 84 1017.9
20181210203910 0 217 9.7 14.5 0.00 0.00 0.00 83 1017.6
20181210203431 0 217 6.4 16.1 0.00 0.00 0.00 83 1017.5
20181210202928 -1 217 8.0 16.1 0.00 0.00 0.00 84 1017.7
20181210202412 -1 216 9.7 19.3 0.00 0.00 0.00 84 1017.6
20181210201915 0 216 12.9 19.3 0.00 0.00 0.00 83 1017.3
20181210201422 0 217 12.9 17.7 0.00 0.00 0.00 83 1017.7
20181210200909 0 217 9.7 17.7 0.00 0.00 0.00 83 1017.8
20181210200415 0 217 8.0 19.3 0.00 0.00 0.00 83 1017.6
20181210195933 0 218 9.7 19.3 0.00 0.00 0.00 83 1017.5
20181210195417 0 215 12.9 20.9 0.00 0.00 0.00 83 1017.6
20181210194908 0 213 11.3 20.9 0.00 0.00 0.00 83 1017.7
20181210194415 0 224 9.7 19.3 0.00 0.00 0.00 82 1018.0
20181210193902 0 231 8.0 19.3 0.00 0.00 0.00 82 1017.8
20181210193410 0 231 9.7 20.9 0.00 0.00 0.00 82 1017.7
20181210192907 0 211 9.7 20.9 0.00 0.00 0.00 82 1017.9
20181210192413 0 226 6.4 16.1 0.00 0.00 0.00 83 1018.1
20181210191916 0 224 8.0 12.9 0.00 0.00 0.00 83 1018.1
20181210191438 0 224 4.8 17.7 0.00 0.00 0.00 82 1018.4
20181210190904 0 225 6.4 17.7 0.00 0.00 0.00 82 1018.1
20181210190411 0 212 8.0 17.7 0.00 0.00 0.00 83 1018.3
20181210185905 0 211 12.9 25.7 0.00 0.00 0.00 84 1018.4
20181210185409 0 203 14.5 25.7 0.00 0.00 0.00 83 1018.6
20181210184858 0 215 16.1 22.5 0.00 0.00 0.00 83 1018.6
20181210184402 0 211 14.5 24.1 0.00 0.00 0.00 83 1018.9
20181210183908 -1 207 12.9 27.4 0.00 0.00 0.00 83 1018.8
20181210183416 -1 220 17.7 27.4 0.00 0.00 0.00 83 1019.1
20181210182853 -1 214 14.5 20.9 0.00 0.00 0.00 84 1019.0
20181210182421 -1 211 16.1 20.9 0.00 0.00 0.00 84 1019.4
20181210181907 -1 213 11.3 17.7 0.00 0.00 0.00 84 1019.4
20181210181356 -1 213 9.7 17.7 0.00 0.00 0.00 84 1019.4
20181210180905 -1 213 9.7 17.7 0.00 0.00 0.00 86 1019.2
20181210180409 -1 211 8.0 11.3 0.00 0.00 0.00 86 1019.7
20181210175851 -1 212 9.7 0.0 0.00 0.00 0.00 86 1019.4
20181210175400 -1 211 16.1 0.0 0.00 0.00 0.00 85 1019.4
20181210174847 -1 218 9.7 0.0 0.00 0.00 0.00 87 1020.0
20181210174358 -1 220 11.3 0.0 0.00 0.00 0.00 87 1019.8
20181210173910 -1 220 11.3 0.0 0.00 0.00 0.00 87 1019.7
20181210173357 -2 220 8.0 0.0 0.00 0.00 0.00 87 1020.2
20181210172855 -2 205 11.3 0.0 0.00 0.00 0.00 89 1020.2
20181210172404 -2 205 16.1 0.0 0.00 0.00 0.00 90 1020.6
20181210171851 -2 207 17.7 0.0 0.00 0.00 0.00 89 1020.2
20181210171400 -2 203 16.1 0.0 0.00 0.00 0.00 90 1020.7
20181210170849 -2 202 17.7 0.0 0.00 0.00 0.00 90 1020.2
20181210170400 -2 204 17.7 0.0 0.00 0.00 0.00 90 1020.9
20181210165859 -2 204 17.7 0.0 0.00 0.00 0.00 89 1020.5
20181210165345 -2 208 16.1 0.0 0.00 0.00 0.00 89 1020.7
20181210164855 -2 208 14.5 0.0 0.00 0.00 0.00 89 1020.8
20181210164341 -2 216 14.5 0.0 0.00 0.00 0.00 89 1021.3
20181210163852 -2 227 9.7 0.0 0.00 0.00 0.00 88 1021.3
20181210163358 -2 270 16.1 0.0 0.00 0.00 0.00 87 1020.8
20181210162840 -2 284 12.9 0.0 0.00 0.00 0.00 88 1021.0
20181210162347 -2 335 8.0 0.0 0.00 0.00 0.00 87 1021.4
20181210161838 -2 336 8.0 0.0 0.00 0.00 0.00 88 1021.4
20181210161348 -2 336 8.0 0.0 0.00 0.00 0.00 87 1021.2
20181210160838 -2 336 6.4 0.0 0.00 0.00 0.00 87 1021.7
20181210160347 -2 336 4.8 0.0 0.00 0.00 0.00 86 1021.7
20181210155848 -2 336 6.4 0.0 0.00 0.00 0.00 86 1021.5
20181210155340 -2 336 8.0 0.0 0.00 0.00 0.00 86 1021.7
20181210154851 -2 336 1.6 0.0 0.00 0.00 0.00 86 1022.0
20181210154342 -2 336 1.6 0.0 0.00 0.00 0.00 86 1022.3
20181210153833 -2 336 1.6 0.0 0.00 0.00 0.00 86 1021.7
20181210153343 -2 336 4.8 0.0 0.00 0.00 0.00 87 1022.0
20181210152844 -2 336 0.0 0.0 0.00 0.00 0.00 87 1022.0
20181210152433 -2 336 3.2 0.0 0.00 0.00 0.00 87 1022.3
20181210151945 -2 336 1.6 0.0 0.00 0.00 0.00 88 1022.0
20181210151456 -2 336 6.4 0.0 0.00 0.00 0.00 88 1021.9
20181210150939 -2 336 3.2 0.0 0.00 0.00 0.00 88 1022.2
20181210150452 -2 336 0.0 0.0 0.00 0.00 0.00 88 1021.8
20181210145933 -2 336 3.2 0.0 0.00 0.00 0.00 88 1022.0
20181210145445 -2 336 3.2 0.0 0.00 0.00 0.00 88 1022.2
20181210144934 -2 336 3.2 0.0 0.00 0.00 0.00 89 1022.1
20181210144445 -2 336 3.2 0.0 0.00 0.00 0.00 89 1021.9
20181210143936 -2 336 3.2 0.0 0.00 0.00 0.00 89 1021.7
20181210143446 -2 336 6.4 0.0 0.00 0.00 0.00 89 1022.1
20181210142945 -2 336 1.6 0.0 0.00 0.00 0.00 89 1021.9
20181210142435 -2 336 3.2 0.0 0.00 0.00 0.00 89 1021.7
20181210141926 -2 336 4.8 0.0 0.00 0.00 0.00 89 1021.7
20181210141435 -2 336 0.0 0.0 0.00 0.00 0.00 89 1021.8
20181210140946 -2 336 0.0 0.0 0.00 0.00 0.00 89 1021.7
20181210140435 -3 336 1.6 0.0 0.00 0.00 0.00 89 1021.7
20181210135935 -3 336 3.2 0.0 0.00 0.00 0.00 89 1021.6
20181210135446 -3 336 3.2 0.0 0.00 0.00 0.00 89 1021.5
20181210134933 -3 336 3.2 0.0 0.00 0.00 0.00 90 1021.4
20181210134424 -3 336 1.6 0.0 0.00 0.00 0.00 90 1021.5
20181210133934 -3 336 4.8 0.0 0.00 0.00 0.00 90 1021.5
20181210133445 -3 336 1.6 0.0 0.00 0.00 0.00 90 1021.6
20181210132928 -3 336 4.8 0.0 0.00 0.00 0.00 90 1021.7
20181210132437 -3 336 0.0 0.0 0.00 0.00 0.00 90 1021.6
20181210131928 -3 336 6.4 0.0 0.00 0.00 0.00 90 1021.5
20181210131431 -3 336 1.6 0.0 0.00 0.00 0.00 90 1021.6
20181210130921 -3 339 6.4 0.0 0.00 0.00 0.00 91 1021.5
20181210130435 -3 338 3.2 0.0 0.00 0.00 0.00 91 1021.3
20181210125933 -3 338 8.0 0.0 0.00 0.00 0.00 92 1021.8
20181210125422 -2 338 3.2 0.0 0.00 0.00 0.00 91 1021.4
20181210124954 -2 338 1.6 0.0 0.00 0.00 0.00 91 1021.6
20181210124426 -2 339 3.2 0.0 0.00 0.00 0.00 91 1021.5
20181210123917 -2 339 3.2 0.0 0.00 0.00 0.00 92 1021.6
20181210123427 -2 338 1.6 0.0 0.00 0.00 0.00 92 1021.6
20181210122928 -2 339 3.2 0.0 0.00 0.00 0.00 92 1021.5
20181210122418 -2 347 3.2 0.0 0.00 0.00 0.00 92 1021.6
20181210121929 -2 347 4.8 0.0 0.00 0.00 0.00 92 1021.9
20181210121420 -2 347 3.2 0.0 0.00 0.00 0.00 91 1021.4
20181210120930 -2 347 3.2 0.0 0.00 0.00 0.00 92 1021.4
20181210120421 -2 347 1.6 0.0 0.00 0.00 0.00 91 1021.5
20181210115924 -2 347 4.8 0.0 0.00 0.00 0.00 91 1021.6
20181210115414 -2 352 4.8 0.0 0.00 0.00 0.00 91 1021.4
20181210114945 -2 352 4.8 0.0 0.00 0.00 0.00 92 1021.2
20181210114415 -2 352 4.8 0.0 0.00 0.00 0.00 92 1021.6
20181210113908 -2 352 4.8 0.0 0.00 0.00 0.00 92 1021.6
20181210113418 -2 353 3.2 0.0 0.00 0.00 0.00 92 1021.3
20181210112919 -2 353 0.0 0.0 0.00 0.00 0.00 93 1021.4
20181210112409 -2 353 3.2 0.0 0.00 0.00 0.00 92 1021.6
20181210111920 -2 353 6.4 0.0 0.00 0.00 0.00 92 1021.4
20181210111409 -2 353 6.4 0.0 0.00 0.00 0.00 92 1021.1
20181210110939 -2 353 3.2 0.0 0.00 0.00 0.00 92 1021.3
20181210110430 -2 353 3.2 0.0 0.00 0.00 0.00 92 1021.2
20181210105911 -2 353 0.0 0.0 0.00 0.00 0.00 93 1021.3
20181210105420 -2 353 4.8 0.0 0.00 0.00 0.00 93 1021.1
20181210104912 -2 353 3.2 0.0 0.00 0.00 0.00 92 1021.1
20181210104421 -2 353 3.2 0.0 0.00 0.00 0.00 92 1021.1
20181210103914 -2 353 1.6 0.0 0.00 0.00 0.00 92 1021.1
20181210103426 -2 353 3.2 0.0 0.00 0.00 0.00 93 1021.2
20181210102908 -2 353 3.2 0.0 0.00 0.00 0.00 92 1021.0
20181210102420 -2 353 4.8 0.0 0.00 0.00 0.00 92 1021.0
20181210101910 -2 353 3.2 0.0 0.00 0.00 0.00 92 1021.2
20181210101402 -2 353 3.2 0.0 0.00 0.00 0.00 92 1020.8
20181210100914 -2 353 1.6 0.0 0.00 0.00 0.00 93 1021.1
20181210100423 -2 353 0.0 0.0 0.00 0.00 0.00 92 1021.4
20181210095901 -2 353 1.6 0.0 0.00 0.00 0.00 93 1021.0
20181210095412 -2 353 6.4 0.0 0.00 0.00 0.00 94 1021.1
20181210094902 -2 353 1.6 0.0 0.00 0.00 0.00 94 1021.3
20181210094429 -2 353 1.6 0.0 0.00 0.00 0.00 94 1021.3
20181210093857 -2 353 3.2 0.0 0.00 0.00 0.00 94 1021.3
20181210093409 -2 353 1.6 0.0 0.00 0.00 0.00 94 1021.2
20181210092909 -2 353 3.2 0.0 0.00 0.00 0.00 93 1021.3
20181210092357 -2 353 0.0 0.0 0.00 0.00 0.00 93 1021.7
20181210091908 -2 353 1.6 0.0 0.00 0.00 0.00 93 1021.3
20181210091358 -2 353 0.0 0.0 0.00 0.00 0.00 93 1021.4
20181210090930 -2 353 0.0 0.0 0.00 0.00 0.00 93 1021.5
20181210090420 -2 353 3.2 0.0 0.00 0.00 0.00 93 1021.2
20181210085900 -2 353 3.2 0.0 0.00 0.00 0.00 94 1021.4
20181210085352 -2 353 0.0 0.0 0.00 0.00 0.00 93 1021.4
20181210084902 -2 353 1.6 0.0 0.00 0.00 0.00 93 1021.7